Regional Weather Roundup
Issued by NWS

Home | Current Version | Previous Version | Text Only | Print | Product List | Glossary Off
Versions: 1 2 3 4 5 6 7 8 9 10 11 12 13 14 15 16 17 18 19 20 21 22 23 24 25 26 27 28

000
ASUS45 KSLC 201810
RWRUT

UTAH REGIONAL WEATHER ROUNDUP
NATIONAL WEATHER SERVICE SALT LAKE CITY UT
1200 PM MDT THU JUL 20 2017

UTZ001>011-023>025-201900-

NORTHERN UTAH

CITY           SKY/WX    TMP DP  RH WIND       PRES   REMARKS
BRIGHAM CITY   MOSUNNY   87  50  27 S14       30.09F
DUGWAY         PTSUNNY   89  52  28 S14G21    30.09S
HILL AFB       MOSUNNY   87  53  30 S21       30.13R
LOGAN          MOSUNNY   87  57  35 NE3       30.09S
OGDEN          MOSUNNY   90  53  28 S17G26    30.09R
SALT LAKE CITY PTSUNNY   90  55  30 S24G30    30.08S
TOOELE VALLEY  SUNNY     90  55  31 S23G32    30.08F
WENDOVER       SUNNY     90  52  27 VRB5      30.06S
HEBER CITY     PTSUNNY   82  52  34 W9        30.20F
WEST JORDAN    MOSUNNY   85  63  48 SE21G29   30.13S

$$

UTZ011>015-024>027-201900-

CENTRAL/NORTHEAST UTAH

CITY           SKY/WX    TMP DP  RH WIND       PRES   REMARKS
PROVO AIRPORT  PTSUNNY   82  59  45 W6        30.16S
MOAB/CANYONLAN MOSUNNY   88  55  32 VRB3      30.15F
DELTA          CLOUDY    82  52  34 S22G29    30.17S
PRICE          MOSUNNY   84  52  33 VRB6      30.25F
ROOSEVELT      SUNNY     79  57  47 E3        30.24F
VERNAL         SUNNY     79  61  53 CALM      30.23F

$$

UTZ013>016-019>022-027-201900-

SOUTHERN UTAH

CITY           SKY/WX    TMP DP  RH WIND       PRES   REMARKS
BRYCE CANYON   SUNNY     74  54  49 SE10      30.41S
CEDAR CITY     CLOUDY    82  56  40 SW13G21   30.26R
MILFORD        CLOUDY    81  58  45 S18G24    30.20S
ST GEORGE      MOCLDY    90  60  36 CALM      30.09F
HANKSVILLE     SUNNY     90  50  25 SE7       30.16F
BLANDING       SUNNY     80  50  35 CALM      30.37F

$$

REGIONAL REPORTS     COLORADO/ARIZONA

CITY           SKY/WX    TMP DP  RH WIND       PRES   REMARKS
CRAIG, CO      SUNNY     84  50  30 MISG      30.29F
GRAND JUNCTION SUNNY     87  55  33 S5        30.18F
RIFLE, CO      SUNNY     82  51  34 NW7       30.24F
MONTROSE, CO   SUNNY     84  51  31 N5        30.26F
CORTEZ, CO     MOSUNNY   83  52  34 SW8       30.28F
COLORADO CITY    N/A     81  59  47 CALM      30.27S
PAGE, AZ       SUNNY     88  57  34 N8        30.17F
GRAND CANYON   MOSUNNY   75  54  47 SW7       30.37S
KINGMAN, AZ    SUNNY     91  57  31 SW12G17   30.14S
FLAGSTAFF, AZ  PTSUNNY   74  55  51 W8        30.39F

$$

REGIONAL REPORTS    NEVADA/IDAHO/WYOMING

CITY           SKY/WX    TMP DP  RH WIND       PRES   REMARKS
LAS VEGAS, NV  CLOUDY    89  68  49 NE9       30.03R HX  93
ELY, NY        MOSUNNY   81  50  33 VRB5      30.24F
ELKO, NV       SUNNY     86  19   8 SW9       30.15S
POCATELLO, ID  MOSUNNY   89  46  22 W14       30.09S
BURLEY, ID     PTSUNNY   78  38  23 W13G20    30.09R
FORT BRIDGER,    N/A     80  48  32 SE6       30.33F
EVANSTON, WY   CLOUDY    78  51  38 SW17      30.31S
ROCK SPRINGS,  CLOUDY    79  46  31 SW8       30.29F
KEMMERER, WY     N/A     79  45  29 S3        30.32F

$$




USA.gov is the U.S. government's official web portal to all federal, state and local government web resources and services.